Location: Ahausen
(50.4985°N, 8.2722°E)
Time: 07:44:55
(UTC+00:00)

Cosmos 1844 Rocket - Pass Details

Date: 18 September 2020
Orbit: 823 x 846 km, 71.0° (Epoch: 22 October)

Event Time Altitude Azimuth Distance (km) Brightness Sun altitude
Rises 19:39:28 0° 199° (SSW) 3,347 5.7 -20.0°
Reaches altitude 10° 19:41:53 10° 197° (SSW) 2,419 4.9 -20.3°
Maximum altitude 19:47:23 69° 115° (ESE) 886 2.5 -21.1°
Drops below altitude 10° 19:52:57 10° 33° (NNE) 2,446 5.1 -21.9°
Sets 19:55:24 0° 31° (NNE) 3,387 5.9 -22.2°
